Time,TemperatureF,DewpointF,PressureIn,WindDirection,WindDirectionDegrees,WindSpeedMPH,WindSpeedGustMPH,Humidity,HourlyPrecipIn,Conditions,Clouds,dailyrainin,SoftwareType,DateUTC
2013-08-10 00:01:00,69.3,65.9,29.87,WNW,293,0.0,0.4,89,0.00,,,0.00,WUHU216HW,2013-08-10 04:01:00,
2013-08-10 00:02:00,69.3,65.9,29.87,West,270,0.2,0.4,89,0.00,,,0.00,WUHU216HW,2013-08-10 04:02:00,
2013-08-10 00:07:00,69.3,65.9,29.87,West,270,0.2,0.4,89,0.00,,,0.00,WUHU216HW,2013-08-10 04:07:00,
2013-08-10 00:12:00,69.3,65.9,29.87,WSW,248,0.7,0.7,89,0.00,,,0.00,WUHU216HW,2013-08-10 04:12:00,
2013-08-10 00:17:00,69.1,65.7,29.87,WNW,293,0.7,0.9,89,0.00,,,0.00,WUHU216HW,2013-08-10 04:17:00,
2013-08-10 00:22:00,69.1,65.7,29.87,West,270,0.4,1.1,89,0.00,,,0.00,WUHU216HW,2013-08-10 04:22:00,
2013-08-10 00:27:00,69.1,65.7,29.87,West,270,0.4,1.1,89,0.00,,,0.00,WUHU216HW,2013-08-10 04:27:00,
2013-08-10 00:33:00,68.9,65.5,29.87,WSW,248,0.4,0.9,89,0.00,,,0.00,WUHU216HW,2013-08-10 04:33:00,
2013-08-10 00:38:00,68.9,65.5,29.87,West,270,0.4,0.9,89,0.00,,,0.00,WUHU216HW,2013-08-10 04:38:00,
2013-08-10 00:43:00,68.9,65.5,29.87,West,270,2.0,2.0,89,0.00,,,0.00,WUHU216HW,2013-08-10 04:43:00,
2013-08-10 00:48:00,68.9,65.8,29.87,WNW,293,0.9,2.0,90,0.00,,,0.00,WUHU216HW,2013-08-10 04:48:00,
2013-08-10 00:53:00,68.7,65.6,29.87,SW,225,1.1,2.0,90,0.00,,,0.00,WUHU216HW,2013-08-10 04:53:00,
2013-08-10 00:58:00,68.7,65.6,29.87,West,270,0.2,1.1,90,0.00,,,0.00,WUHU216HW,2013-08-10 04:58:00,
2013-08-10 01:03:00,68.7,65.6,29.87,West,270,0.9,1.1,90,0.00,,,0.00,WUHU216HW,2013-08-10 05:03:00,
2013-08-10 01:09:00,68.6,65.5,29.87,WNW,293,0.4,1.1,90,0.00,,,0.00,WUHU216HW,2013-08-10 05:09:00,
2013-08-10 01:14:00,68.6,65.5,29.87,WNW,293,0.4,1.1,90,0.00,,,0.00,WUHU216HW,2013-08-10 05:14:00,
2013-08-10 01:19:00,68.6,65.5,29.87,West,270,1.8,1.8,90,0.00,,,0.00,WUHU216HW,2013-08-10 05:19:00,
2013-08-10 01:24:00,68.6,65.5,29.87,WNW,293,0.0,1.8,90,0.00,,,0.00,WUHU216HW,2013-08-10 05:24:00,
2013-08-10 01:29:00,68.4,65.3,29.87,WNW,293,0.0,1.8,90,0.00,,,0.00,WUHU216HW,2013-08-10 05:29:00,
2013-08-10 01:34:00,68.4,65.3,29.88,WSW,248,0.2,1.1,90,0.00,,,0.00,WUHU216HW,2013-08-10 05:34:00,
2013-08-10 01:39:00,68.4,65.3,29.88,West,270,0.2,1.1,90,0.00,,,0.00,WUHU216HW,2013-08-10 05:39:00,
2013-08-10 01:44:00,68.2,65.1,29.88,West,270,0.0,0.4,90,0.00,,,0.00,WUHU216HW,2013-08-10 05:44:00,
2013-08-10 01:49:00,68.2,65.1,29.88,WSW,248,1.1,1.3,90,0.00,,,0.00,WUHU216HW,2013-08-10 05:49:00,
2013-08-10 01:55:00,68.2,65.1,29.88,SSW,203,0.2,1.3,90,0.00,,,0.00,WUHU216HW,2013-08-10 05:55:00,
2013-08-10 02:00:00,68.0,64.9,29.89,West,270,0.0,0.7,90,0.00,,,0.00,WUHU216HW,2013-08-10 06:00:00,
2013-08-10 02:05:00,68.0,64.9,29.88,West,270,0.2,0.9,90,0.00,,,0.00,WUHU216HW,2013-08-10 06:05:00,
2013-08-10 02:10:00,67.8,64.7,29.88,West,270,0.0,0.9,90,0.00,,,0.00,WUHU216HW,2013-08-10 06:10:00,
2013-08-10 02:15:00,67.8,64.7,29.88,West,270,0.0,0.2,90,0.00,,,0.00,WUHU216HW,2013-08-10 06:15:00,
2013-08-10 02:20:00,67.7,64.6,29.88,West,270,0.4,0.4,90,0.00,,,0.00,WUHU216HW,2013-08-10 06:20:00,
2013-08-10 02:25:00,67.7,64.6,29.89,WSW,248,0.4,0.4,90,0.00,,,0.00,WUHU216HW,2013-08-10 06:25:00,
2013-08-10 02:30:00,67.5,64.4,29.89,West,270,0.2,0.7,90,0.00,,,0.00,WUHU216HW,2013-08-10 06:30:00,
2013-08-10 02:35:00,67.5,64.4,29.89,West,270,0.9,1.1,90,0.00,,,0.00,WUHU216HW,2013-08-10 06:35:00,
2013-08-10 02:41:00,67.5,64.4,29.89,NW,315,1.1,1.1,90,0.00,,,0.00,WUHU216HW,2013-08-10 06:41:00,
2013-08-10 02:46:00,67.5,64.4,29.89,WNW,293,0.7,1.1,90,0.00,,,0.00,WUHU216HW,2013-08-10 06:46:00,
2013-08-10 02:51:00,67.3,64.2,29.89,West,270,0.0,0.7,90,0.00,,,0.00,WUHU216HW,2013-08-10 06:51:00,
2013-08-10 02:56:00,67.3,64.2,29.90,WNW,293,0.0,0.7,90,0.00,,,0.00,WUHU216HW,2013-08-10 06:56:00,
2013-08-10 03:01:00,67.3,64.2,29.90,WNW,293,0.0,0.4,90,0.00,,,0.00,WUHU216HW,2013-08-10 07:01:00,
2013-08-10 03:06:00,67.1,64.0,29.90,West,270,0.4,0.4,90,0.00,,,0.00,WUHU216HW,2013-08-10 07:06:00,
2013-08-10 03:11:00,67.1,64.0,29.90,West,270,0.4,0.9,90,0.00,,,0.00,WUHU216HW,2013-08-10 07:11:00,
2013-08-10 03:16:00,66.9,63.9,29.90,West,270,0.0,0.9,90,0.00,,,0.00,WUHU216HW,2013-08-10 07:16:00,
2013-08-10 03:21:00,66.9,63.9,29.90,West,270,0.0,0.7,90,0.00,,,0.00,WUHU216HW,2013-08-10 07:21:00,
2013-08-10 03:27:00,66.8,63.8,29.90,WNW,293,0.4,0.4,90,0.00,,,0.00,WUHU216HW,2013-08-10 07:27:00,
2013-08-10 03:32:00,66.8,63.8,29.90,North,0,0.0,0.4,90,0.00,,,0.00,WUHU216HW,2013-08-10 07:32:00,
2013-08-10 03:37:00,66.8,63.8,29.90,WNW,293,0.0,0.4,90,0.00,,,0.00,WUHU216HW,2013-08-10 07:37:00,
2013-08-10 03:42:00,66.6,63.6,29.90,North,0,0.2,2.0,90,0.00,,,0.00,WUHU216HW,2013-08-10 07:42:00,
2013-08-10 03:47:00,66.4,63.4,29.91,SSW,203,0.2,2.0,90,0.00,,,0.00,WUHU216HW,2013-08-10 07:47:00,
2013-08-10 03:52:00,66.4,63.4,29.91,SSW,203,0.2,0.4,90,0.00,,,0.00,WUHU216HW,2013-08-10 07:52:00,
2013-08-10 03:57:00,66.2,63.2,29.91,SSW,203,0.0,0.2,90,0.00,,,0.00,WUHU216HW,2013-08-10 07:57:00,
2013-08-10 04:03:00,66.0,63.0,29.91,WNW,293,0.4,0.4,90,0.00,,,0.00,WUHU216HW,2013-08-10 08:03:00,
2013-08-10 04:08:00,66.0,63.0,29.91,West,270,0.4,0.4,90,0.00,,,0.00,WUHU216HW,2013-08-10 08:08:00,
2013-08-10 04:13:00,66.0,63.0,29.91,West,270,1.1,1.1,90,0.00,,,0.00,WUHU216HW,2013-08-10 08:13:00,
2013-08-10 04:18:00,65.9,62.9,29.91,West,270,0.0,1.1,90,0.00,,,0.00,WUHU216HW,2013-08-10 08:18:00,
2013-08-10 04:24:00,65.9,62.9,29.91,West,270,0.2,1.1,90,0.00,,,0.00,WUHU216HW,2013-08-10 08:24:00,
2013-08-10 04:29:00,65.7,62.7,29.91,SW,225,2.2,2.2,90,0.00,,,0.00,WUHU216HW,2013-08-10 08:29:00,
2013-08-10 04:34:00,65.7,62.7,29.91,West,270,0.4,2.2,90,0.00,,,0.00,WUHU216HW,2013-08-10 08:34:00,
2013-08-10 04:39:00,65.5,62.5,29.92,West,270,1.1,2.2,90,0.00,,,0.00,WUHU216HW,2013-08-10 08:39:00,
2013-08-10 04:44:00,65.3,62.3,29.92,West,270,0.4,1.1,90,0.00,,,0.00,WUHU216HW,2013-08-10 08:44:00,
2013-08-10 04:49:00,65.3,62.3,29.92,WNW,293,0.7,1.1,90,0.00,,,0.00,WUHU216HW,2013-08-10 08:49:00,
2013-08-10 04:54:00,65.1,62.1,29.92,WNW,293,0.7,0.7,90,0.00,,,0.00,WUHU216HW,2013-08-10 08:54:00,
2013-08-10 04:59:00,65.1,62.1,29.92,WNW,293,1.1,1.1,90,0.00,,,0.00,WUHU216HW,2013-08-10 08:59:00,
2013-08-10 05:04:00,65.0,62.0,29.92,WNW,293,1.1,1.6,90,0.00,,,0.00,WUHU216HW,2013-08-10 09:04:00,
2013-08-10 05:09:00,64.8,61.8,29.92,NW,315,1.1,2.2,90,0.00,,,0.00,WUHU216HW,2013-08-10 09:09:00,
2013-08-10 05:15:00,64.8,61.8,29.93,WNW,293,1.1,2.2,90,0.00,,,0.00,WUHU216HW,2013-08-10 09:15:00,
2013-08-10 05:20:00,64.6,61.6,29.92,NW,315,0.4,1.8,90,0.00,,,0.00,WUHU216HW,2013-08-10 09:20:00,
2013-08-10 05:25:00,64.6,61.6,29.92,WSW,248,0.4,1.6,90,0.00,,,0.00,WUHU216HW,2013-08-10 09:25:00,
2013-08-10 05:30:00,64.6,61.6,29.93,West,270,0.4,1.6,90,0.00,,,0.00,WUHU216HW,2013-08-10 09:30:00,
2013-08-10 05:35:00,64.6,61.6,29.93,WSW,248,0.7,0.9,90,0.00,,,0.00,WUHU216HW,2013-08-10 09:35:00,
2013-08-10 05:40:00,64.4,61.4,29.93,SW,225,0.0,1.8,90,0.00,,,0.00,WUHU216HW,2013-08-10 09:40:00,
2013-08-10 05:45:00,64.2,61.2,29.93,SW,225,0.0,1.8,90,0.00,,,0.00,WUHU216HW,2013-08-10 09:45:00,
2013-08-10 05:51:00,64.2,61.2,29.94,NW,315,0.0,0.0,90,0.00,,,0.00,WUHU216HW,2013-08-10 09:51:00,
2013-08-10 05:56:00,64.1,61.1,29.94,WNW,293,0.0,0.4,90,0.00,,,0.00,WUHU216HW,2013-08-10 09:56:00,
2013-08-10 06:01:00,64.1,61.1,29.94,WNW,293,0.7,1.3,90,0.00,,,0.00,WUHU216HW,2013-08-10 10:01:00,
2013-08-10 06:06:00,63.9,60.9,29.94,WNW,293,0.4,2.7,90,0.00,,,0.00,WUHU216HW,2013-08-10 10:06:00,
2013-08-10 06:11:00,63.9,60.9,29.94,West,270,1.8,3.4,90,0.00,,,0.00,WUHU216HW,2013-08-10 10:11:00,
2013-08-10 06:16:00,63.9,60.9,29.94,West,270,1.3,3.4,90,0.00,,,0.00,WUHU216HW,2013-08-10 10:16:00,
2013-08-10 06:21:00,63.9,60.9,29.95,WNW,293,1.8,2.7,90,0.00,,,0.00,WUHU216HW,2013-08-10 10:21:00,
2013-08-10 06:26:00,63.9,60.9,29.94,WNW,293,2.5,2.7,90,0.00,,,0.00,WUHU216HW,2013-08-10 10:26:00,
2013-08-10 06:32:00,63.9,60.9,29.95,WNW,293,1.8,2.5,90,0.00,,,0.00,WUHU216HW,2013-08-10 10:32:00,
2013-08-10 06:37:00,63.9,60.9,29.95,WNW,293,1.1,2.5,90,0.00,,,0.00,WUHU216HW,2013-08-10 10:37:00,
2013-08-10 06:42:00,63.9,60.9,29.95,NW,315,0.9,1.8,90,0.00,,,0.00,WUHU216HW,2013-08-10 10:42:00,
2013-08-10 06:47:00,63.7,60.7,29.95,WNW,293,0.9,1.1,90,0.00,,,0.00,WUHU216HW,2013-08-10 10:47:00,
2013-08-10 06:52:00,63.7,60.7,29.95,West,270,1.1,1.8,90,0.00,,,0.00,WUHU216HW,2013-08-10 10:52:00,
2013-08-10 06:57:00,63.7,60.4,29.95,West,270,3.4,3.4,89,0.00,,,0.00,WUHU216HW,2013-08-10 10:57:00,
2013-08-10 07:02:00,63.5,60.2,29.96,WSW,248,2.0,4.0,89,0.00,,,0.00,WUHU216HW,2013-08-10 11:02:00,
2013-08-10 07:07:00,63.7,60.4,29.96,West,270,2.5,4.0,89,0.00,,,0.00,WUHU216HW,2013-08-10 11:07:00,
2013-08-10 07:12:00,63.7,60.4,29.96,WNW,293,0.7,2.9,89,0.00,,,0.00,WUHU216HW,2013-08-10 11:12:00,
2013-08-10 07:18:00,63.9,60.6,29.96,West,270,2.0,2.7,89,0.00,,,0.00,WUHU216HW,2013-08-10 11:18:00,
2013-08-10 07:23:00,63.9,60.6,29.96,West,270,1.6,2.7,89,0.00,,,0.00,WUHU216HW,2013-08-10 11:23:00,
2013-08-10 07:28:00,63.9,60.6,29.96,West,270,1.6,2.0,89,0.00,,,0.00,WUHU216HW,2013-08-10 11:28:00,
2013-08-10 07:33:00,64.1,60.8,29.96,WNW,293,1.6,2.9,89,0.00,,,0.00,WUHU216HW,2013-08-10 11:33:00,
2013-08-10 07:38:00,64.2,60.6,29.96,NW,315,1.8,2.9,88,0.00,,,0.00,WUHU216HW,2013-08-10 11:38:00,
2013-08-10 07:43:00,64.2,60.6,29.96,West,270,2.2,2.2,88,0.00,,,0.00,WUHU216HW,2013-08-10 11:43:00,
2013-08-10 07:48:00,64.2,60.6,29.96,West,270,2.7,2.7,88,0.00,,,0.00,WUHU216HW,2013-08-10 11:48:00,
2013-08-10 07:54:00,64.4,60.8,29.96,WNW,293,1.6,3.4,88,0.00,,,0.00,WUHU216HW,2013-08-10 11:54:00,
2013-08-10 07:59:00,64.6,61.0,29.96,WSW,248,2.7,3.4,88,0.00,,,0.00,WUHU216HW,2013-08-10 11:59:00,
2013-08-10 08:04:00,64.6,61.0,29.96,WSW,248,3.4,3.4,88,0.00,,,0.00,WUHU216HW,2013-08-10 12:04:00,
2013-08-10 08:09:00,64.8,60.8,29.96,WSW,248,1.1,3.4,87,0.00,,,0.00,WUHU216HW,2013-08-10 12:09:00,
2013-08-10 08:14:00,64.8,60.8,29.96,West,270,1.3,4.0,87,0.00,,,0.00,WUHU216HW,2013-08-10 12:14:00,
2013-08-10 08:19:00,65.0,60.7,29.97,WNW,293,1.8,4.0,86,0.00,,,0.00,WUHU216HW,2013-08-10 12:19:00,
2013-08-10 08:24:00,65.0,60.7,29.97,West,270,3.4,3.4,86,0.00,,,0.00,WUHU216HW,2013-08-10 12:24:00,
2013-08-10 08:29:00,65.1,60.8,29.97,West,270,1.6,3.4,86,0.00,,,0.00,WUHU216HW,2013-08-10 12:29:00,
2013-08-10 08:34:00,65.3,60.7,29.97,WSW,248,4.3,4.3,85,0.00,,,0.00,WUHU216HW,2013-08-10 12:34:00,
2013-08-10 08:39:00,65.3,60.7,29.97,West,270,0.4,4.3,85,0.00,,,0.00,WUHU216HW,2013-08-10 12:39:00,
2013-08-10 08:44:00,65.3,60.7,29.97,NW,315,2.0,4.3,85,0.00,,,0.00,WUHU216HW,2013-08-10 12:44:00,
2013-08-10 08:49:00,65.5,60.9,29.97,West,270,1.8,2.5,85,0.00,,,0.00,WUHU216HW,2013-08-10 12:49:00,
2013-08-10 08:54:00,65.7,61.1,29.97,West,270,0.4,3.6,85,0.00,,,0.00,WUHU216HW,2013-08-10 12:54:00,
2013-08-10 08:59:00,65.7,60.8,29.97,WSW,248,1.1,3.6,84,0.00,,,0.00,WUHU216HW,2013-08-10 12:59:00,
2013-08-10 09:04:00,65.7,60.8,29.97,NE,45,2.5,3.6,84,0.00,,,0.00,WUHU216HW,2013-08-10 13:04:00,
2013-08-10 09:09:00,65.7,60.8,29.97,North,0,1.1,2.5,84,0.00,,,0.00,WUHU216HW,2013-08-10 13:09:00,
2013-08-10 09:14:00,65.9,61.0,29.97,SSE,158,2.5,2.5,84,0.00,,,0.00,WUHU216HW,2013-08-10 13:14:00,
2013-08-10 09:19:00,66.0,61.1,29.97,West,270,1.6,2.5,84,0.00,,,0.00,WUHU216HW,2013-08-10 13:19:00,
2013-08-10 09:24:00,66.2,61.3,29.97,NNW,338,0.9,2.5,84,0.00,,,0.00,WUHU216HW,2013-08-10 13:24:00,
2013-08-10 09:29:00,66.2,61.3,29.97,SW,225,0.4,2.5,84,0.00,,,0.00,WUHU216HW,2013-08-10 13:29:00,
2013-08-10 09:34:00,66.2,60.9,29.97,NNW,338,0.2,2.7,83,0.00,,,0.00,WUHU216HW,2013-08-10 13:34:00,
2013-08-10 09:39:00,66.6,61.3,29.97,WSW,248,0.2,2.7,83,0.00,,,0.00,WUHU216HW,2013-08-10 13:39:00,
2013-08-10 09:44:00,66.8,61.2,29.97,West,270,0.9,1.8,82,0.00,,,0.00,WUHU216HW,2013-08-10 13:44:00,
2013-08-10 09:49:00,67.1,61.5,29.97,WSW,248,3.4,3.4,82,0.00,,,0.00,WUHU216HW,2013-08-10 13:49:00,
2013-08-10 09:54:00,67.5,61.2,29.97,WNW,293,2.2,4.0,80,0.00,,,0.00,WUHU216HW,2013-08-10 13:54:00,
2013-08-10 09:59:00,67.7,61.4,29.97,WNW,293,2.0,4.0,80,0.00,,,0.00,WUHU216HW,2013-08-10 13:59:00,
2013-08-10 10:04:00,68.0,61.7,29.97,West,270,1.3,2.2,80,0.00,,,0.00,WUHU216HW,2013-08-10 14:04:00,
2013-08-10 10:09:00,68.4,61.7,29.97,West,270,1.6,4.3,79,0.00,,,0.00,WUHU216HW,2013-08-10 14:09:00,
2013-08-10 10:14:00,68.9,61.9,29.97,SW,225,2.9,4.3,78,0.00,,,0.00,WUHU216HW,2013-08-10 14:14:00,
2013-08-10 10:15:00,68.9,61.9,29.97,SSW,203,1.8,4.3,78,0.00,,,0.00,WUHU216HW,2013-08-10 14:15:00,
2013-08-10 10:20:00,69.1,61.3,29.97,SE,135,2.2,4.0,76,0.00,,,0.00,WUHU216HW,2013-08-10 14:20:00,
2013-08-10 10:25:00,69.3,61.2,29.97,SSW,203,5.4,5.6,75,0.00,,,0.00,WUHU216HW,2013-08-10 14:25:00,
2013-08-10 10:30:00,69.3,61.2,29.98,West,270,1.8,5.6,75,0.00,,,0.00,WUHU216HW,2013-08-10 14:30:00,
2013-08-10 10:35:00,69.3,61.2,29.97,North,0,1.8,5.4,75,0.00,,,0.00,WUHU216HW,2013-08-10 14:35:00,
2013-08-10 10:40:00,69.5,61.0,29.98,SW,225,1.3,2.7,74,0.00,,,0.00,WUHU216HW,2013-08-10 14:40:00,
2013-08-10 10:45:00,69.6,61.1,29.97,WSW,248,4.9,6.3,74,0.00,,,0.00,WUHU216HW,2013-08-10 14:45:00,
2013-08-10 10:50:00,69.5,61.0,29.97,WNW,293,4.0,6.9,74,0.00,,,0.00,WUHU216HW,2013-08-10 14:50:00,
2013-08-10 10:55:00,69.5,61.0,29.97,WSW,248,7.6,7.6,74,0.00,,,0.00,WUHU216HW,2013-08-10 14:55:00,
2013-08-10 11:00:00,69.5,61.4,29.97,NNE,23,2.7,7.6,75,0.00,,,0.00,WUHU216HW,2013-08-10 15:00:00,
2013-08-10 11:06:00,69.5,61.4,29.97,NW,315,1.8,7.6,75,0.00,,,0.00,WUHU216HW,2013-08-10 15:06:00,
2013-08-10 11:11:00,69.8,61.3,29.97,WNW,293,2.5,4.5,74,0.00,,,0.00,WUHU216HW,2013-08-10 15:11:00,
2013-08-10 11:16:00,70.2,61.3,29.97,WNW,293,6.5,6.5,73,0.00,,,0.00,WUHU216HW,2013-08-10 15:16:00,
2013-08-10 11:21:00,70.7,62.2,29.97,West,270,6.7,6.7,74,0.00,,,0.00,WUHU216HW,2013-08-10 15:21:00,
2013-08-10 11:26:00,71.1,62.2,29.97,NNE,23,1.8,6.7,73,0.00,,,0.00,WUHU216HW,2013-08-10 15:26:00,
2013-08-10 11:31:00,71.1,61.8,29.98,WSW,248,5.1,6.7,72,0.00,,,0.00,WUHU216HW,2013-08-10 15:31:00,
2013-08-10 11:36:00,71.3,62.0,29.97,NNW,338,4.5,5.1,72,0.00,,,0.00,WUHU216HW,2013-08-10 15:36:00,
2013-08-10 11:41:00,71.3,61.6,29.97,SW,225,2.2,5.1,71,0.00,,,0.00,WUHU216HW,2013-08-10 15:41:00,
2013-08-10 11:46:00,71.4,61.7,29.97,SW,225,3.4,6.3,71,0.00,,,0.00,WUHU216HW,2013-08-10 15:46:00,
2013-08-10 11:51:00,71.4,61.7,29.97,SW,225,1.6,6.7,71,0.00,,,0.00,WUHU216HW,2013-08-10 15:51:00,
2013-08-10 11:56:00,71.6,61.5,29.98,West,270,2.5,6.7,70,0.00,,,0.00,WUHU216HW,2013-08-10 15:56:00,
2013-08-10 12:01:00,71.8,62.1,29.98,WNW,293,2.9,5.4,71,0.00,,,0.00,WUHU216HW,2013-08-10 16:01:00,
2013-08-10 12:06:00,71.8,61.3,29.97,West,270,4.9,4.9,69,0.00,,,0.00,WUHU216HW,2013-08-10 16:06:00,
2013-08-10 12:11:00,71.6,61.1,29.97,WSW,248,4.5,6.5,69,0.00,,,0.00,WUHU216HW,2013-08-10 16:11:00,
2013-08-10 12:16:00,71.8,61.7,29.97,South,180,1.6,6.5,70,0.00,,,0.00,WUHU216HW,2013-08-10 16:16:00,
2013-08-10 12:21:00,71.8,61.3,29.97,WNW,293,2.5,6.3,69,0.00,,,0.00,WUHU216HW,2013-08-10 16:21:00,
2013-08-10 12:26:00,72.2,61.7,29.97,WSW,248,4.5,6.3,69,0.00,,,0.00,WUHU216HW,2013-08-10 16:26:00,
2013-08-10 12:31:00,72.2,61.7,29.97,South,180,4.9,6.0,69,0.00,,,0.00,WUHU216HW,2013-08-10 16:31:00,
2013-08-10 12:36:00,72.2,60.4,29.97,West,270,4.0,6.5,66,0.00,,,0.00,WUHU216HW,2013-08-10 16:36:00,
2013-08-10 12:41:00,72.2,61.2,29.97,North,0,1.8,6.5,68,0.00,,,0.00,WUHU216HW,2013-08-10 16:41:00,
2013-08-10 12:46:00,72.3,60.9,29.97,West,270,1.8,6.0,67,0.00,,,0.00,WUHU216HW,2013-08-10 16:46:00,
2013-08-10 12:51:00,72.3,61.3,29.97,South,180,1.6,6.0,68,0.00,,,0.00,WUHU216HW,2013-08-10 16:51:00,
2013-08-10 12:56:00,72.5,61.9,29.97,WSW,248,3.4,4.0,69,0.00,,,0.00,WUHU216HW,2013-08-10 16:56:00,
2013-08-10 13:01:00,72.9,62.3,29.97,SSW,203,2.0,6.7,69,0.00,,,0.00,WUHU216HW,2013-08-10 17:01:00,
2013-08-10 13:06:00,73.2,61.8,29.97,NW,315,5.4,6.7,67,0.00,,,0.00,WUHU216HW,2013-08-10 17:06:00,
2013-08-10 13:11:00,73.2,62.2,29.97,NW,315,4.3,5.6,68,0.00,,,0.00,WUHU216HW,2013-08-10 17:11:00,
2013-08-10 13:16:00,73.2,61.4,29.97,West,270,3.4,5.6,66,0.00,,,0.00,WUHU216HW,2013-08-10 17:16:00,
2013-08-10 13:21:00,73.4,61.1,29.97,South,180,3.4,5.6,65,0.00,,,0.00,WUHU216HW,2013-08-10 17:21:00,
2013-08-10 13:26:00,73.6,60.4,29.97,SW,225,5.4,6.5,63,0.00,,,0.00,WUHU216HW,2013-08-10 17:26:00,
2013-08-10 13:31:00,73.6,60.9,29.97,WNW,293,4.3,6.5,64,0.00,,,0.00,WUHU216HW,2013-08-10 17:31:00,
2013-08-10 13:36:00,73.6,61.3,29.97,SW,225,5.4,6.7,65,0.00,,,0.00,WUHU216HW,2013-08-10 17:36:00,
2013-08-10 13:41:00,73.6,61.3,29.97,NW,315,1.8,6.7,65,0.00,,,0.00,WUHU216HW,2013-08-10 17:41:00,
2013-08-10 13:46:00,74.0,61.3,29.97,SW,225,5.4,6.3,64,0.00,,,0.00,WUHU216HW,2013-08-10 17:46:00,
2013-08-10 13:51:00,74.3,61.5,29.97,SSE,158,6.0,6.0,64,0.00,,,0.00,WUHU216HW,2013-08-10 17:51:00,
2013-08-10 13:56:00,74.7,61.9,29.97,SSW,203,2.7,6.0,64,0.00,,,0.00,WUHU216HW,2013-08-10 17:56:00,
2013-08-10 14:01:00,74.9,62.1,29.96,West,270,2.7,6.7,64,0.00,,,0.00,WUHU216HW,2013-08-10 18:01:00,
2013-08-10 14:06:00,74.9,61.7,29.96,WNW,293,5.4,6.9,63,0.00,,,0.00,WUHU216HW,2013-08-10 18:06:00,
2013-08-10 14:11:00,74.9,62.1,29.96,WNW,293,2.9,6.9,64,0.00,,,0.00,WUHU216HW,2013-08-10 18:11:00,
2013-08-10 14:16:00,75.2,61.5,29.96,WSW,248,2.2,9.8,62,0.00,,,0.00,WUHU216HW,2013-08-10 18:16:00,
2013-08-10 14:21:00,75.8,61.1,29.96,West,270,6.3,9.8,60,0.00,,,0.00,WUHU216HW,2013-08-10 18:21:00,
2013-08-10 14:25:00,75.9,61.2,29.96,WNW,293,3.8,9.2,60,0.00,,,0.00,WUHU216HW,2013-08-10 18:25:00,
2013-08-10 14:30:00,75.9,60.3,29.96,West,270,4.7,9.2,58,0.00,,,0.00,WUHU216HW,2013-08-10 18:30:00,
2013-08-10 14:36:00,75.9,61.2,29.96,West,270,5.4,7.2,60,0.00,,,0.00,WUHU216HW,2013-08-10 18:36:00,
2013-08-10 14:41:00,75.8,60.7,29.96,West,270,5.6,7.2,59,0.00,,,0.00,WUHU216HW,2013-08-10 18:41:00,
2013-08-10 14:46:00,75.8,61.6,29.96,West,270,2.5,6.3,61,0.00,,,0.00,WUHU216HW,2013-08-10 18:46:00,
2013-08-10 14:51:00,76.1,61.4,29.96,North,0,2.9,5.6,60,0.00,,,0.00,WUHU216HW,2013-08-10 18:51:00,
2013-08-10 14:56:00,76.3,61.1,29.96,SSE,158,3.6,6.9,59,0.00,,,0.00,WUHU216HW,2013-08-10 18:56:00,
2013-08-10 15:01:00,76.5,61.3,29.96,West,270,5.4,6.9,59,0.00,,,0.00,WUHU216HW,2013-08-10 19:01:00,
2013-08-10 15:06:00,76.7,61.0,29.97,WSW,248,5.8,8.1,58,0.00,,,0.00,WUHU216HW,2013-08-10 19:06:00,
2013-08-10 15:11:00,76.8,60.6,29.97,WNW,293,5.1,8.7,57,0.00,,,0.00,WUHU216HW,2013-08-10 19:11:00,
2013-08-10 15:16:00,76.8,60.6,29.96,WNW,293,4.9,8.7,57,0.00,,,0.00,WUHU216HW,2013-08-10 19:16:00,
2013-08-10 15:21:00,77.2,61.5,29.96,NW,315,2.0,6.3,58,0.00,,,0.00,WUHU216HW,2013-08-10 19:21:00,
2013-08-10 15:26:00,77.6,60.8,29.96,SW,225,4.9,7.8,56,0.00,,,0.00,WUHU216HW,2013-08-10 19:26:00,
2013-08-10 15:31:00,77.7,60.9,29.95,NNW,338,6.0,7.8,56,0.00,,,0.00,WUHU216HW,2013-08-10 19:31:00,
2013-08-10 15:36:00,77.9,61.6,29.96,WNW,293,3.4,7.4,57,0.00,,,0.00,WUHU216HW,2013-08-10 19:36:00,
2013-08-10 15:41:00,77.9,61.6,29.96,SSW,203,1.3,6.0,57,0.00,,,0.00,WUHU216HW,2013-08-10 19:41:00,
2013-08-10 15:46:00,77.9,61.6,29.95,West,270,3.4,4.0,57,0.00,,,0.00,WUHU216HW,2013-08-10 19:46:00,
2013-08-10 15:51:00,77.9,61.1,29.95,WSW,248,4.7,4.7,56,0.00,,,0.00,WUHU216HW,2013-08-10 19:51:00,
2013-08-10 15:56:00,77.6,61.4,29.95,South,180,1.8,4.9,57,0.00,,,0.00,WUHU216HW,2013-08-10 19:56:00,
2013-08-10 16:02:00,77.6,61.4,29.95,West,270,2.5,4.9,57,0.00,,,0.00,WUHU216HW,2013-08-10 20:02:00,
2013-08-10 16:07:00,77.0,61.3,29.95,WSW,248,1.1,3.4,58,0.00,,,0.00,WUHU216HW,2013-08-10 20:07:00,
2013-08-10 16:12:00,77.0,61.3,29.95,West,270,2.9,3.1,58,0.00,,,0.00,WUHU216HW,2013-08-10 20:12:00,
2013-08-10 16:17:00,77.2,61.5,29.95,WNW,293,4.3,4.3,58,0.00,,,0.00,WUHU216HW,2013-08-10 20:17:00,
2013-08-10 16:22:00,77.6,62.3,29.95,WNW,293,2.5,4.3,59,0.00,,,0.00,WUHU216HW,2013-08-10 20:22:00,
2013-08-10 16:27:00,77.6,61.9,29.95,WNW,293,3.1,4.0,58,0.00,,,0.00,WUHU216HW,2013-08-10 20:27:00,
2013-08-10 16:32:00,77.7,62.4,29.95,WNW,293,2.2,3.1,59,0.00,,,0.00,WUHU216HW,2013-08-10 20:32:00,
2013-08-10 16:37:00,77.9,61.6,29.95,WSW,248,0.9,4.7,57,0.00,,,0.00,WUHU216HW,2013-08-10 20:37:00,
2013-08-10 16:42:00,77.7,61.5,29.95,WSW,248,4.7,4.7,57,0.00,,,0.00,WUHU216HW,2013-08-10 20:42:00,
2013-08-10 16:48:00,77.9,61.6,29.95,NW,315,3.8,4.7,57,0.00,,,0.00,WUHU216HW,2013-08-10 20:48:00,
2013-08-10 16:53:00,78.5,62.2,29.95,West,270,2.0,4.7,57,0.00,,,0.00,WUHU216HW,2013-08-10 20:53:00,
2013-08-10 16:58:00,78.5,61.7,29.95,West,270,1.6,3.1,56,0.00,,,0.00,WUHU216HW,2013-08-10 20:58:00,
2013-08-10 17:03:00,77.7,61.5,29.95,WNW,293,1.8,3.6,57,0.00,,,0.00,WUHU216HW,2013-08-10 21:03:00,
2013-08-10 17:08:00,77.4,62.2,29.95,NW,315,1.8,3.6,59,0.00,,,0.00,WUHU216HW,2013-08-10 21:08:00,
2013-08-10 17:13:00,77.6,62.3,29.95,West,270,1.3,2.5,59,0.00,,,0.00,WUHU216HW,2013-08-10 21:13:00,
2013-08-10 17:18:00,77.7,62.9,29.95,SW,225,0.4,2.5,60,0.00,,,0.00,WUHU216HW,2013-08-10 21:18:00,
2013-08-10 17:23:00,77.9,63.1,29.96,WNW,293,0.0,1.3,60,0.00,,,0.00,WUHU216HW,2013-08-10 21:23:00,
2013-08-10 17:29:00,78.5,62.7,29.96,NNW,338,0.9,1.3,58,0.00,,,0.00,WUHU216HW,2013-08-10 21:29:00,
2013-08-10 17:34:00,78.3,63.0,29.96,NNW,338,0.4,1.3,59,0.00,,,0.00,WUHU216HW,2013-08-10 21:34:00,
2013-08-10 17:39:00,78.6,63.8,29.96,North,0,0.0,1.1,60,0.00,,,0.00,WUHU216HW,2013-08-10 21:39:00,
2013-08-10 17:44:00,79.4,64.5,29.96,WNW,293,1.1,1.1,60,0.00,,,0.00,WUHU216HW,2013-08-10 21:44:00,
2013-08-10 17:49:00,79.7,64.3,29.96,NNW,338,0.4,1.1,59,0.00,,,0.00,WUHU216HW,2013-08-10 21:49:00,
2013-08-10 17:54:00,79.7,64.3,29.96,NW,315,0.4,1.1,59,0.00,,,0.00,WUHU216HW,2013-08-10 21:54:00,
2013-08-10 17:59:00,80.1,64.2,29.95,WNW,293,2.2,2.2,58,0.00,,,0.00,WUHU216HW,2013-08-10 21:59:00,
2013-08-10 18:04:00,80.4,64.0,29.95,WNW,293,1.6,2.2,57,0.00,,,0.00,WUHU216HW,2013-08-10 22:04:00,
2013-08-10 18:09:00,80.8,64.4,29.95,WSW,248,0.9,2.2,57,0.00,,,0.00,WUHU216HW,2013-08-10 22:09:00,
2013-08-10 18:15:00,81.0,64.0,29.95,WSW,248,1.6,2.0,56,0.00,,,0.00,WUHU216HW,2013-08-10 22:15:00,
2013-08-10 18:20:00,80.3,62.9,29.95,West,270,0.7,1.8,55,0.00,,,0.00,WUHU216HW,2013-08-10 22:20:00,
2013-08-10 18:25:00,80.1,63.2,29.96,WNW,293,0.9,2.5,56,0.00,,,0.00,WUHU216HW,2013-08-10 22:25:00,
2013-08-10 18:30:00,79.7,62.8,29.96,NW,315,1.3,2.5,56,0.00,,,0.00,WUHU216HW,2013-08-10 22:30:00,
2013-08-10 18:35:00,79.7,62.8,29.96,NW,315,1.8,2.0,56,0.00,,,0.00,WUHU216HW,2013-08-10 22:35:00,
2013-08-10 18:40:00,79.0,62.7,29.96,West,270,1.1,2.9,57,0.00,,,0.00,WUHU216HW,2013-08-10 22:40:00,
2013-08-10 18:45:00,78.8,62.5,29.96,West,270,1.1,2.9,57,0.00,,,0.00,WUHU216HW,2013-08-10 22:45:00,
2013-08-10 18:50:00,78.8,62.5,29.96,West,270,1.1,1.1,57,0.00,,,0.00,WUHU216HW,2013-08-10 22:50:00,
2013-08-10 18:56:00,78.3,62.5,29.96,WNW,293,0.4,1.1,58,0.00,,,0.00,WUHU216HW,2013-08-10 22:56:00,
2013-08-10 19:01:00,77.7,62.0,29.96,WNW,293,0.4,1.3,58,0.00,,,0.00,WUHU216HW,2013-08-10 23:01:00,
2013-08-10 19:06:00,77.6,62.3,29.96,NW,315,0.2,1.6,59,0.00,,,0.00,WUHU216HW,2013-08-10 23:06:00,
2013-08-10 19:11:00,77.4,62.2,29.96,WNW,293,0.7,1.6,59,0.00,,,0.00,WUHU216HW,2013-08-10 23:11:00,
2013-08-10 19:16:00,77.0,61.8,29.96,NW,315,0.2,0.9,59,0.00,,,0.00,WUHU216HW,2013-08-10 23:16:00,
2013-08-10 19:21:00,76.8,61.6,29.96,West,270,0.4,0.4,59,0.00,,,0.00,WUHU216HW,2013-08-10 23:21:00,
2013-08-10 19:26:00,76.3,61.6,29.97,WNW,293,0.4,1.1,60,0.00,,,0.00,WUHU216HW,2013-08-10 23:26:00,
2013-08-10 19:32:00,75.9,61.2,29.97,WNW,293,0.0,1.1,60,0.00,,,0.00,WUHU216HW,2013-08-10 23:32:00,
2013-08-10 19:37:00,75.6,61.4,29.97,WNW,293,0.0,0.4,61,0.00,,,0.00,WUHU216HW,2013-08-10 23:37:00,
2013-08-10 19:42:00,75.4,61.2,29.97,WNW,293,0.0,0.7,61,0.00,,,0.00,WUHU216HW,2013-08-10 23:42:00,
2013-08-10 19:47:00,75.0,61.3,29.97,WNW,293,0.0,0.7,62,0.00,,,0.00,WUHU216HW,2013-08-10 23:47:00,
2013-08-10 19:52:00,74.9,61.2,29.97,WNW,293,0.0,0.0,62,0.00,,,0.00,WUHU216HW,2013-08-10 23:52:00,
2013-08-10 19:57:00,74.7,61.5,29.98,South,180,0.4,0.4,63,0.00,,,0.00,WUHU216HW,2013-08-10 23:57:00,
2013-08-10 20:02:00,74.3,61.1,29.98,West,270,0.0,0.4,63,0.00,,,0.00,WUHU216HW,2013-08-11 00:02:00,
2013-08-10 20:07:00,74.1,60.9,29.98,NNW,338,0.4,0.4,63,0.00,,,0.00,WUHU216HW,2013-08-11 00:07:00,
2013-08-10 20:13:00,73.8,61.1,29.98,NW,315,0.0,0.4,64,0.00,,,0.00,WUHU216HW,2013-08-11 00:13:00,
2013-08-10 20:18:00,73.6,60.9,29.98,NW,315,0.0,0.4,64,0.00,,,0.00,WUHU216HW,2013-08-11 00:18:00,
2013-08-10 20:23:00,73.2,60.9,29.99,NNW,338,0.2,0.2,65,0.00,,,0.00,WUHU216HW,2013-08-11 00:23:00,
2013-08-10 20:28:00,73.1,60.8,29.99,NNW,338,0.0,0.2,65,0.00,,,0.00,WUHU216HW,2013-08-11 00:28:00,
2013-08-10 20:33:00,72.9,61.1,29.99,NNW,338,0.0,0.0,66,0.00,,,0.00,WUHU216HW,2013-08-11 00:33:00,
2013-08-10 20:38:00,72.5,61.1,29.99,SE,135,0.9,0.9,67,0.00,,,0.00,WUHU216HW,2013-08-11 00:38:00,
2013-08-10 20:43:00,72.2,60.8,30.00,SSE,158,0.7,0.9,67,0.00,,,0.00,WUHU216HW,2013-08-11 00:43:00,
2013-08-10 20:49:00,71.8,60.9,30.00,SE,135,0.4,0.9,68,0.00,,,0.00,WUHU216HW,2013-08-11 00:49:00,
2013-08-10 20:54:00,71.4,60.5,30.00,SE,135,0.0,0.9,68,0.00,,,0.00,WUHU216HW,2013-08-11 00:54:00,
2013-08-10 20:59:00,71.4,60.5,30.00,SE,135,0.0,0.4,68,0.00,,,0.00,WUHU216HW,2013-08-11 00:59:00,
2013-08-10 21:04:00,70.9,60.4,30.00,SE,135,0.0,0.0,69,0.00,,,0.00,WUHU216HW,2013-08-11 01:04:00,
2013-08-10 21:09:00,70.5,60.4,30.00,SE,135,0.0,0.0,70,0.00,,,0.00,WUHU216HW,2013-08-11 01:09:00,
2013-08-10 21:14:00,70.4,60.7,30.00,SE,135,0.0,0.0,71,0.00,,,0.00,WUHU216HW,2013-08-11 01:14:00,
2013-08-10 21:19:00,70.0,60.3,30.01,SE,135,0.0,0.0,71,0.00,,,0.00,WUHU216HW,2013-08-11 01:19:00,
2013-08-10 21:24:00,69.6,59.6,30.01,SE,135,0.0,0.7,70,0.00,,,0.00,WUHU216HW,2013-08-11 01:24:00,
2013-08-10 21:30:00,69.3,59.7,30.02,SE,135,0.0,1.1,71,0.00,,,0.00,WUHU216HW,2013-08-11 01:30:00,
2013-08-10 21:35:00,69.1,59.5,30.02,SE,135,0.0,1.1,71,0.00,,,0.00,WUHU216HW,2013-08-11 01:35:00,
2013-08-10 21:39:00,68.9,59.7,30.02,SE,135,0.0,0.0,72,0.00,,,0.00,WUHU216HW,2013-08-11 01:39:00,
2013-08-10 21:49:00,68.7,59.5,30.02,SE,135,0.0,0.0,72,0.00,,,0.00,WUHU216HW,2013-08-11 01:49:00,
2013-08-10 21:50:00,68.7,59.5,30.02,SE,135,0.0,0.0,72,0.00,,,0.00,WUHU216HW,2013-08-11 01:50:00,
2013-08-10 21:55:00,68.7,59.5,30.02,SE,135,0.0,0.0,72,0.00,,,0.00,WUHU216HW,2013-08-11 01:55:00,
2013-08-10 22:00:00,67.8,59.0,30.02,SE,135,0.0,0.0,73,0.00,,,0.00,WUHU216HW,2013-08-11 02:00:00,